Regional Weather Roundup
Issued by NWS Wilmington, NC

Home | Current Version | Previous Version | Text Only | Print | Product List | Glossary On
Versions: 1 2 3 4 5 6 7 8 9 10 11 12 13 14 15 16 17 18 19 20 21 22 23 24 25 26 27 28 29 30 31 32 33 34 35 36 37 38 39 40 41 42 43 44 45 46 47 48 49 50
208
ASUS42 KILM 220913
RWRILM
RWRILM
REGIONAL HOURLY WEATHER ROUNDUP
NATIONAL WEATHER SERVICE WILMINGTON NC
500 AM EDT SUN APR 22 2018

NOTE: "FAIR" INDICATES FEW OR NO CLOUDS BELOW 12,000 FEET WITH NO
SIGNIFICANT WEATHER AND/OR OBSTRUCTIONS TO VISIBILITY.

...............WFO WILMINGTON COUNTY WARNING AREA...............

......COASTAL NC AND SC COUNTIES......

CITY           SKY/WX    TMP DP  RH WIND       PRES   REMARKS
WILMINGTON     FAIR      46  44  93 NE6       30.33F
N MYRTLE BEACH MOCLDY    52  49  89 NE5       30.31S
MYRTLE BEACH   MOCLDY    55  50  83 NE5       30.32F

......INLAND NC AND SC COUNTIES.......

CITY           SKY/WX    TMP DP  RH WIND       PRES   REMARKS
LUMBERTON      FAIR      43  41  93 CALM      30.33S
ELIZABETHTOWN  NOT AVBL
WHITEVILLE     FAIR      45  43  94 CALM      30.32F
FLORENCE       FAIR      48  45  89 NE5       30.32F
DARLINGTON     FAIR      47  45  93 CALM      30.33S
KINGSTREE      FAIR      48  46  93 CALM      30.31S
HARTSVILLE     FAIR      45  43  93 NE3       30.32S
BENNETTSVILLE  FAIR      46  46 100 CALM      30.33S
CONWAY         FAIR      43  43 100 CALM      30.32F
GEORGETOWN     FAIR      48  46  93 CALM      30.31S
MARION         FAIR      43  41  93 NE5       30.33S

....................REST OF NORTH CAROLINA......................

.........EASTERN NC.........

CITY           SKY/WX    TMP DP  RH WIND       PRES   REMARKS
CAPE HATTERAS  FAIR      50  43  77 NE6       30.37F
JACKSONVILLE   FAIR      42  40  92 NE6       30.36S
MOREHEAD CITY  FAIR      47  44  90 NE5       30.35F
KENANSVILLE    FAIR      37  37 100 CALM      30.36S
NEW BERN       FAIR      44  43  96 CALM      30.37F
ELIZABETH CITY FAIR      46  38  73 CALM      30.39F

.........CENTRAL NC.........

CITY           SKY/WX    TMP DP  RH WIND       PRES   REMARKS
RALEIGH DURHAM FAIR      46  40  79 CALM      30.35F
ROCKY MOUNT    FAIR      42  40  92 CALM      30.37S
ROANOKE RAPIDS NOT AVBL
FAYETTEVILLE   FAIR      43  38  82 NE3       30.33F
HOFFMAN        FAIR      41  40  94 CALM      30.33F

.........WESTERN NC.........

CITY           SKY/WX    TMP DP  RH WIND       PRES   REMARKS
CHARLOTTE      FAIR      50  46  86 CALM      30.32S
GREENSBORO     FAIR      47  41  80 SW5       30.32R
HICKORY        NOT AVBL
BOONE          NOT AVBL
ASHEVILLE      NOT AVBL

.....................REST OF SOUTH CAROLINA.....................

.........EASTERN SC.........

CITY           SKY/WX    TMP DP  RH WIND       PRES   REMARKS
CHARLESTON     FAIR      58  55  90 E8        30.27S
BEAUFORT MCAS  MOCLDY    63  58  83 NE7       30.25S
HILTON HEAD    FAIR      64  59  82 VRB7G13   30.25S

.........CENTRAL SC.........

CITY           SKY/WX    TMP DP  RH WIND       PRES   REMARKS
COLUMBIA       CLOUDY    57  51  80 E5        30.30R
ORANGEBURG     CLOUDY    57  51  80 E3        30.29S
SUMTER SHAW    FAIR      49  46  87 N3        30.29S

.........WESTERN SC.........

CITY           SKY/WX    TMP DP  RH WIND       PRES   REMARKS
GREENVILLE     NOT AVBL
ROCK HILL      FAIR      48  45  89 CALM      30.32S
ANDERSON       CLOUDY    55  47  74 CALM      30.29S
CLEMSON        NOT AVBL
GREENWOOD      MOCLDY    53  50  89 CALM      30.30S


...................COASTAL AND OFFSHORE REPORTS..................

................LOCAL PIERS AND NC RESERVE................


STATION/POSITION TIME  SKY/WX   TEMP    WIND        PRES    VSBY
                                AIR SEA DIR/SP/G
                 (UTC)          (F)     (DEG/KT/KT) (MB)    (MI)
JOHNY MRCER PIER 0836            61 63   60/ 11/ 12 1027.1F
NC RESRV MASNBRO NOT AVBL
OCEAN CREST PIER NOT AVBL
SPRINGMAID  PIER 0836                               1029.5F


................COASTAL AND OFFSHORE BUOYS................


STATION/POSITION TIME  SKY/WX   TEMP    WIND        PRES    VSBY
                                AIR SEA DIR/SP/G
                 (UTC)          (F)     (DEG/KT/KT) (MB)    (MI)
DIMNDSHOAL 41025 0900            58 73   10/ 10/ 14 1028.6
CAPE LOOKOUT     0900                    70/  9/  9 1027.9F
ONSLOW BAY 41036 NOT AVBL
ONSLOW BAY 41064 0808            63 65   80/ 10/ 12 1027.5F
ONSLOW BAY 41159 0900               65                N/A
WVE H/P(F/S)=  3/ 7

MASNBO INL 41110 0900               60                N/A
WVE H/P(F/S)=  2/ 8

WILM HARBR 41108 0900               61                N/A
WVE H/P(F/S)=  2/ 5

27SE WRITB 41037 0808            64 65   90/  8/ 14 1026.9F
FRYING PAN 41013 0900            66 69  100/ 12/ 16 1026.0
SUNST NRSH 41024 0808            59 62   50/  8/ 10 1026.4F
CAPRS NRSH 41029 0808            63 63   70/ 12/ 17 1025.2F
EDISTO     41004 0900            67 67  110/ 14/ 16 1024.5


..........OFFSHORE BUOYS BEYOND 100 NM OFFSHORE...........
.....IN A TRIANGLE---HAT TO BERMUDA TO BAHAMAS TO HAT.....


STATION/POSITION TIME  SKY/WX   TEMP    WIND        PRES    VSBY
                                AIR SEA DIR/SP/G
                 (UTC)          (F)     (DEG/KT/KT) (MB)    (MI)
150E HAT   41001 NOT AVBL
W BERMUDA  41048 0850               70   40/ 10/ 14 1025.9R
WVE H/P(F/S)=  4/ 8 SWL H/P/D(F/S/D)=  3/360/ 8

ATLANTIC S 41049 0850               76   70/  6/ 10 1021.4R
WVE H/P(F/S)=  5/ 9 SWL H/P/D(F/S/D)=  5/320/ 9

E BAHAMAS  41046 0900               79   70/ 16/ 21 1019.4
NE BAHAMAS 41047 0850                    60/ 19/ 25 1022.1R
WVE H/P(F/S)=  7/ 7 SWL H/P/D(F/S/D)=  2/ 50/13

120E CANVRL41010 0850            71 76   70/ 19/ 25 1021.5R
WVE H/P(F/S)=  6/ 7 SWL H/P/D(F/S/D)=  2/ 90/14


END




USA.gov is the U.S. government's official web portal to all federal, state and local government web resources and services.